Year,Month,Day,Hour,Minute,Value (Times are PST for temperature in C)
2021,04,15,00,00,9.10
2021,04,15,00,01,9.10
2021,04,15,00,02,9.10
2021,04,15,00,03,9.10
2021,04,15,00,04,9.10
2021,04,15,00,05,9.10
2021,04,15,00,06,9.10
2021,04,15,00,07,9.10
2021,04,15,00,08,9.10
2021,04,15,00,09,9.10
2021,04,15,00,10,9.10
2021,04,15,00,11,9.10
2021,04,15,00,12,9.10
2021,04,15,00,13,9.00
2021,04,15,00,14,9.00
2021,04,15,00,15,9.00
2021,04,15,00,16,9.00
2021,04,15,00,17,9.00
2021,04,15,00,18,9.00
2021,04,15,00,19,9.00
2021,04,15,00,20,9.00
2021,04,15,00,21,9.00
2021,04,15,00,22,9.00
2021,04,15,00,23,8.90
2021,04,15,00,24,8.90
2021,04,15,00,25,8.90
2021,04,15,00,26,8.90
2021,04,15,00,27,8.90
2021,04,15,00,28,8.90
2021,04,15,00,29,8.90
2021,04,15,00,30,8.90
2021,04,15,00,31,8.90
2021,04,15,00,32,8.90
2021,04,15,00,33,8.90
2021,04,15,00,34,8.80
2021,04,15,00,35,8.80
2021,04,15,00,36,8.80
2021,04,15,00,37,8.80
2021,04,15,00,38,8.70
2021,04,15,00,39,8.70
2021,04,15,00,40,8.70
2021,04,15,00,41,8.70
2021,04,15,00,42,8.70
2021,04,15,00,43,8.70
2021,04,15,00,44,8.70
2021,04,15,00,45,8.70
2021,04,15,00,46,8.70
2021,04,15,00,47,8.70
2021,04,15,00,48,8.70
2021,04,15,00,49,8.70
2021,04,15,00,50,8.70
2021,04,15,00,51,8.70
2021,04,15,00,52,8.70
2021,04,15,00,53,8.70
2021,04,15,00,54,8.70
2021,04,15,00,55,8.70
2021,04,15,00,56,8.60
2021,04,15,00,57,8.60
2021,04,15,00,58,8.60
2021,04,15,00,59,8.60
2021,04,15,01,00,8.60
2021,04,15,01,01,8.60
2021,04,15,01,02,8.60
2021,04,15,01,03,8.60
2021,04,15,01,04,8.60
2021,04,15,01,05,8.60
2021,04,15,01,06,8.60
2021,04,15,01,07,8.60
2021,04,15,01,08,8.60
2021,04,15,01,09,8.60
2021,04,15,01,10,8.60
2021,04,15,01,11,8.50
2021,04,15,01,12,8.50
2021,04,15,01,13,8.40
2021,04,15,01,14,8.40
2021,04,15,01,15,8.40
2021,04,15,01,16,8.40
2021,04,15,01,17,8.40
2021,04,15,01,18,8.40
2021,04,15,01,19,8.40
2021,04,15,01,20,8.40
2021,04,15,01,21,8.40
2021,04,15,01,22,8.40
2021,04,15,01,23,8.40
2021,04,15,01,24,8.40
2021,04,15,01,25,8.30
2021,04,15,01,26,8.30
2021,04,15,01,27,8.30
2021,04,15,01,28,8.30
2021,04,15,01,29,8.30
2021,04,15,01,30,8.40
2021,04,15,01,31,8.40
2021,04,15,01,32,8.30
2021,04,15,01,33,8.30
2021,04,15,01,34,8.30
2021,04,15,01,35,8.30
2021,04,15,01,36,8.30
2021,04,15,01,37,8.30
2021,04,15,01,38,8.30
2021,04,15,01,39,8.20
2021,04,15,01,40,8.20
2021,04,15,01,41,8.20
2021,04,15,01,42,8.20
2021,04,15,01,43,8.20
2021,04,15,01,44,8.20
2021,04,15,01,45,8.20
2021,04,15,01,46,8.20
2021,04,15,01,47,8.20
2021,04,15,01,48,8.20
2021,04,15,01,49,8.20
2021,04,15,01,50,8.20
2021,04,15,01,51,8.20
2021,04,15,01,52,8.30
2021,04,15,01,53,8.30
2021,04,15,01,54,8.40
2021,04,15,01,55,8.40
2021,04,15,01,56,8.40
2021,04,15,01,57,8.50
2021,04,15,01,58,8.50
2021,04,15,01,59,8.50
2021,04,15,02,00,8.50
2021,04,15,02,01,8.50
2021,04,15,02,02,8.50
2021,04,15,02,03,8.50
2021,04,15,02,04,8.50
2021,04,15,02,05,8.40
2021,04,15,02,06,8.40
2021,04,15,02,07,8.40
2021,04,15,02,08,8.40
2021,04,15,02,09,8.40
2021,04,15,02,10,8.30
2021,04,15,02,11,8.30
2021,04,15,02,12,8.30
2021,04,15,02,13,8.30
2021,04,15,02,14,8.20
2021,04,15,02,15,8.20
2021,04,15,02,16,8.10
2021,04,15,02,17,8.10
2021,04,15,02,18,8.10
2021,04,15,02,19,8.10
2021,04,15,02,20,8.00
2021,04,15,02,21,8.00
2021,04,15,02,22,8.00
2021,04,15,02,23,8.10
2021,04,15,02,24,8.10
2021,04,15,02,25,8.10
2021,04,15,02,26,8.10
2021,04,15,02,27,8.10
2021,04,15,02,28,8.10
2021,04,15,02,29,8.10
2021,04,15,02,30,8.20
2021,04,15,02,31,8.20
2021,04,15,02,32,8.20
2021,04,15,02,33,8.20
2021,04,15,02,34,8.20
2021,04,15,02,35,8.20
2021,04,15,02,36,8.10
2021,04,15,02,37,8.10
2021,04,15,02,38,8.10
2021,04,15,02,39,8.10
2021,04,15,02,40,8.10
2021,04,15,02,41,8.00
2021,04,15,02,42,8.00
2021,04,15,02,43,8.00
2021,04,15,02,44,8.00
2021,04,15,02,45,8.00
2021,04,15,02,46,8.00
2021,04,15,02,47,8.00
2021,04,15,02,48,8.00
2021,04,15,02,49,7.90
2021,04,15,02,50,7.90
2021,04,15,02,51,7.90
2021,04,15,02,52,7.90
2021,04,15,02,53,7.90
2021,04,15,02,54,7.90
2021,04,15,02,55,7.90
2021,04,15,02,56,8.00
2021,04,15,02,57,8.00
2021,04,15,02,58,8.10
2021,04,15,02,59,8.20
2021,04,15,03,00,8.20
2021,04,15,03,01,8.20
2021,04,15,03,02,8.20
2021,04,15,03,03,8.20
2021,04,15,03,04,8.30
2021,04,15,03,05,8.30
2021,04,15,03,06,8.30
2021,04,15,03,07,8.30
2021,04,15,03,08,8.30
2021,04,15,03,09,8.30
2021,04,15,03,10,8.30
2021,04,15,03,11,8.30
2021,04,15,03,12,8.30
2021,04,15,03,13,8.30
2021,04,15,03,14,8.30
2021,04,15,03,15,8.30
2021,04,15,03,16,8.30
2021,04,15,03,17,8.40
2021,04,15,03,18,8.40
2021,04,15,03,19,8.40
2021,04,15,03,20,8.40
2021,04,15,03,21,8.40
2021,04,15,03,22,8.40
2021,04,15,03,23,8.40
2021,04,15,03,24,8.40
2021,04,15,03,25,8.40
2021,04,15,03,26,8.40
2021,04,15,03,27,8.40
2021,04,15,03,28,8.40
2021,04,15,03,29,8.40
2021,04,15,03,30,8.50
2021,04,15,03,31,8.50
2021,04,15,03,32,8.50
2021,04,15,03,33,8.60
2021,04,15,03,34,8.60
2021,04,15,03,35,8.60
2021,04,15,03,36,8.60
2021,04,15,03,37,8.70
2021,04,15,03,38,8.70
2021,04,15,03,39,8.70
2021,04,15,03,40,8.70
2021,04,15,03,41,8.70
2021,04,15,03,42,8.70
2021,04,15,03,43,8.70
2021,04,15,03,44,8.60
2021,04,15,03,45,8.60
2021,04,15,03,46,8.60
2021,04,15,03,47,8.60
2021,04,15,03,48,8.60
2021,04,15,03,49,8.60
2021,04,15,03,50,8.50
2021,04,15,03,51,8.50
2021,04,15,03,52,8.50
2021,04,15,03,53,8.50
2021,04,15,03,54,8.50
2021,04,15,03,55,8.50
2021,04,15,03,56,8.50
2021,04,15,03,57,8.50
2021,04,15,03,58,8.50
2021,04,15,03,59,8.60
2021,04,15,04,00,8.60
2021,04,15,04,01,8.70
2021,04,15,04,02,8.80
2021,04,15,04,03,8.80
2021,04,15,04,04,8.90
2021,04,15,04,08,8.90
2021,04,15,04,09,8.90
2021,04,15,04,10,8.90
2021,04,15,04,11,8.90
2021,04,15,04,12,8.90
2021,04,15,04,13,8.80
2021,04,15,04,14,8.80
2021,04,15,04,15,8.70
2021,04,15,04,16,8.70
2021,04,15,04,17,8.60
2021,04,15,04,18,8.60
2021,04,15,04,19,8.50
2021,04,15,04,20,8.50
2021,04,15,04,21,8.50
2021,04,15,04,22,8.50
2021,04,15,04,23,8.50
2021,04,15,04,24,8.50
2021,04,15,04,25,8.50
2021,04,15,04,26,8.50
2021,04,15,04,27,8.50
2021,04,15,04,28,8.50
2021,04,15,04,29,8.60
2021,04,15,04,30,8.60
2021,04,15,04,31,8.60
2021,04,15,04,32,8.60
2021,04,15,04,33,8.50
2021,04,15,04,34,8.50
2021,04,15,04,35,8.50
2021,04,15,04,36,8.50
2021,04,15,04,37,8.50
2021,04,15,04,38,8.50
2021,04,15,04,39,8.50
2021,04,15,04,40,8.60
2021,04,15,04,41,8.60
2021,04,15,04,42,8.60
2021,04,15,04,43,8.70
2021,04,15,04,44,8.70
2021,04,15,04,45,8.80
2021,04,15,04,46,8.80
2021,04,15,04,47,8.90
2021,04,15,04,48,8.90
2021,04,15,04,49,8.90
2021,04,15,04,50,8.90
2021,04,15,04,51,8.90
2021,04,15,04,52,9.00
2021,04,15,04,53,8.90
2021,04,15,04,54,8.90
2021,04,15,04,55,8.90
2021,04,15,04,56,8.80
2021,04,15,04,57,8.80
2021,04,15,04,58,8.80
2021,04,15,04,59,8.70
2021,04,15,05,00,8.70
2021,04,15,05,01,8.70
2021,04,15,05,02,8.70
2021,04,15,05,03,8.60
2021,04,15,05,04,8.60
2021,04,15,05,05,8.60
2021,04,15,05,06,8.60
2021,04,15,05,07,8.60
2021,04,15,05,08,8.60
2021,04,15,05,09,8.60
2021,04,15,05,10,8.60
2021,04,15,05,11,8.60
2021,04,15,05,12,8.60
2021,04,15,05,13,8.70
2021,04,15,05,14,8.70
2021,04,15,05,15,8.70
2021,04,15,05,16,8.70
2021,04,15,05,17,8.70
2021,04,15,05,18,8.60
2021,04,15,05,19,8.50
2021,04,15,05,20,8.50
2021,04,15,05,21,8.40
2021,04,15,05,22,8.40
2021,04,15,05,23,8.40
2021,04,15,05,24,8.40
2021,04,15,05,25,8.40
2021,04,15,05,26,8.40
2021,04,15,05,27,8.40
2021,04,15,05,28,8.40
2021,04,15,05,29,8.40
2021,04,15,05,30,8.30
2021,04,15,05,31,8.30
2021,04,15,05,32,8.40
2021,04,15,05,33,8.40
2021,04,15,05,34,8.40
2021,04,15,05,35,8.40
2021,04,15,05,36,8.40
2021,04,15,05,37,8.40
2021,04,15,05,38,8.40
2021,04,15,05,39,8.40
2021,04,15,05,40,8.30
2021,04,15,05,41,8.30
2021,04,15,05,42,8.20
2021,04,15,05,43,8.20
2021,04,15,05,44,8.10
2021,04,15,05,45,8.10
2021,04,15,05,46,8.10
2021,04,15,05,47,8.00
2021,04,15,05,48,8.00
2021,04,15,05,49,7.90
2021,04,15,05,50,7.90
2021,04,15,05,51,8.00
2021,04,15,05,52,8.00
2021,04,15,05,53,8.00
2021,04,15,05,54,8.00
2021,04,15,05,55,8.00
2021,04,15,05,56,8.10
2021,04,15,05,57,8.10
2021,04,15,05,58,8.10
2021,04,15,05,59,8.10
2021,04,15,06,00,8.10
2021,04,15,06,01,8.20
2021,04,15,06,02,8.10
2021,04,15,06,03,8.20
2021,04,15,06,04,8.20
2021,04,15,06,05,8.20
2021,04,15,06,06,8.10
2021,04,15,06,07,8.10
2021,04,15,06,08,8.10
2021,04,15,06,09,8.10
2021,04,15,06,10,8.10
2021,04,15,06,11,8.00
2021,04,15,06,12,8.00
2021,04,15,06,13,8.00
2021,04,15,06,14,8.00
2021,04,15,06,15,8.00
2021,04,15,06,16,8.00
2021,04,15,06,17,8.00
2021,04,15,06,18,8.00
2021,04,15,06,19,7.90
2021,04,15,06,20,7.90
2021,04,15,06,21,7.90
2021,04,15,06,22,7.90
2021,04,15,06,23,7.80
2021,04,15,06,24,7.80
2021,04,15,06,25,7.80
2021,04,15,06,26,7.80
2021,04,15,06,27,7.80
2021,04,15,06,28,7.80
2021,04,15,06,29,7.80
2021,04,15,06,30,7.80
2021,04,15,06,31,7.70
2021,04,15,06,32,7.70
2021,04,15,06,33,7.70
2021,04,15,06,34,7.70
2021,04,15,06,35,7.60
2021,04,15,06,36,7.60
2021,04,15,06,37,7.50
2021,04,15,06,38,7.50
2021,04,15,06,39,7.50
2021,04,15,06,40,7.40
2021,04,15,06,41,7.40
2021,04,15,06,42,7.40
2021,04,15,06,43,7.40
2021,04,15,06,44,7.40
2021,04,15,06,45,7.40
2021,04,15,06,46,7.40
2021,04,15,06,47,7.40
2021,04,15,06,48,7.40
2021,04,15,06,49,7.40
2021,04,15,06,50,7.40
2021,04,15,06,51,7.40
2021,04,15,06,52,7.40
2021,04,15,06,53,7.40
2021,04,15,06,54,7.40
2021,04,15,06,55,7.40
2021,04,15,06,56,7.40
2021,04,15,06,57,7.40
2021,04,15,06,58,7.40
2021,04,15,06,59,7.40
2021,04,15,07,00,7.40
2021,04,15,07,01,7.40
2021,04,15,07,02,7.40
2021,04,15,07,03,7.40
2021,04,15,07,04,7.40
2021,04,15,07,05,7.40
2021,04,15,07,06,7.40
2021,04,15,07,07,7.40
2021,04,15,07,08,7.40
2021,04,15,07,09,7.50
2021,04,15,07,10,7.50
2021,04,15,07,11,7.50
2021,04,15,07,12,7.50
2021,04,15,07,13,7.40
2021,04,15,07,14,7.40
2021,04,15,07,15,7.50
2021,04,15,07,16,7.50
2021,04,15,07,17,7.50
2021,04,15,07,18,7.50
2021,04,15,07,19,7.50
2021,04,15,07,20,7.50
2021,04,15,07,21,7.50
2021,04,15,07,22,7.50
2021,04,15,07,23,7.50
2021,04,15,07,24,7.50
2021,04,15,07,25,7.50
2021,04,15,07,26,7.50
2021,04,15,07,27,7.50
2021,04,15,07,28,7.50
2021,04,15,07,29,7.50
2021,04,15,07,30,7.60
2021,04,15,07,31,7.60
2021,04,15,07,32,7.60
2021,04,15,07,33,7.60
2021,04,15,07,34,7.70
2021,04,15,07,35,7.70
2021,04,15,07,36,7.80
2021,04,15,07,37,7.80
2021,04,15,07,38,7.90
2021,04,15,07,39,7.90
2021,04,15,07,40,8.00
2021,04,15,07,41,8.10
2021,04,15,07,42,8.20
2021,04,15,07,43,8.30
2021,04,15,07,44,8.40
2021,04,15,07,45,8.50
2021,04,15,07,46,8.60
2021,04,15,07,47,8.70
2021,04,15,07,48,8.80
2021,04,15,07,49,8.90
2021,04,15,07,50,9.10
2021,04,15,07,51,9.20
2021,04,15,07,52,9.30
2021,04,15,07,53,9.50
2021,04,15,07,54,9.60
2021,04,15,07,55,9.70
2021,04,15,07,56,9.80
2021,04,15,07,57,9.90
2021,04,15,07,58,10.00
2021,04,15,07,59,10.10
2021,04,15,08,00,10.10
2021,04,15,08,01,10.20
2021,04,15,08,02,10.30
2021,04,15,08,03,10.40
2021,04,15,08,04,10.50
2021,04,15,08,05,10.50
2021,04,15,08,06,10.60
2021,04,15,08,07,10.70
2021,04,15,08,08,10.80
2021,04,15,08,09,10.90
2021,04,15,08,10,10.90
2021,04,15,08,11,11.00
2021,04,15,08,12,11.10
2021,04,15,08,13,11.20
2021,04,15,08,14,11.30
2021,04,15,08,15,11.30
2021,04,15,08,16,11.40
2021,04,15,08,17,11.40
2021,04,15,08,18,11.50
2021,04,15,08,19,11.50
2021,04,15,08,20,11.60
2021,04,15,08,21,11.70
2021,04,15,08,22,11.80
2021,04,15,08,23,11.90
2021,04,15,08,24,11.90
2021,04,15,08,25,12.00
2021,04,15,08,26,12.10
2021,04,15,08,27,12.20
2021,04,15,08,28,12.30
2021,04,15,08,29,12.30
2021,04,15,08,30,12.40
2021,04,15,08,31,12.40
2021,04,15,08,32,12.50
2021,04,15,08,33,12.50
2021,04,15,08,34,12.60
2021,04,15,08,35,12.60
2021,04,15,08,36,12.70
2021,04,15,08,37,12.70
2021,04,15,08,38,12.80
2021,04,15,08,39,12.80
2021,04,15,08,40,12.90
2021,04,15,08,41,13.00
2021,04,15,08,42,13.00
2021,04,15,08,43,13.10
2021,04,15,08,44,13.10
2021,04,15,08,45,13.20
2021,04,15,08,46,13.30
2021,04,15,08,47,13.40
2021,04,15,08,48,13.50
2021,04,15,08,49,13.60
2021,04,15,08,50,13.70
2021,04,15,08,51,13.80
2021,04,15,08,52,13.90
2021,04,15,08,53,14.00
2021,04,15,08,54,14.10
2021,04,15,08,55,14.20
2021,04,15,08,56,14.30
2021,04,15,08,57,14.30
2021,04,15,08,58,14.30
2021,04,15,08,59,14.40
2021,04,15,09,00,14.50
2021,04,15,09,01,14.50
2021,04,15,09,02,14.40
2021,04,15,09,03,14.50
2021,04,15,09,04,14.50
2021,04,15,09,05,14.50
2021,04,15,09,06,14.50
2021,04,15,09,07,14.50
2021,04,15,09,08,14.40
2021,04,15,09,09,14.50
2021,04,15,09,10,14.50
2021,04,15,09,11,14.50
2021,04,15,09,12,14.50
2021,04,15,09,13,14.50
2021,04,15,09,14,14.60
2021,04,15,09,15,14.60
2021,04,15,09,16,14.60
2021,04,15,09,17,14.50
2021,04,15,09,18,14.50
2021,04,15,09,19,14.50
2021,04,15,09,20,14.50
2021,04,15,09,21,14.50
2021,04,15,09,22,14.50
2021,04,15,09,23,14.50
2021,04,15,09,24,14.50
2021,04,15,09,25,14.50
2021,04,15,09,26,14.60
2021,04,15,09,27,14.60
2021,04,15,09,28,14.60
2021,04,15,09,29,14.60
2021,04,15,09,30,14.70
2021,04,15,09,31,14.70
2021,04,15,09,32,14.80
2021,04,15,09,33,14.90
2021,04,15,09,34,14.90
2021,04,15,09,35,15.00
2021,04,15,09,36,15.00
2021,04,15,09,37,15.10
2021,04,15,09,38,15.20
2021,04,15,09,39,15.20
2021,04,15,09,40,15.20
2021,04,15,09,41,15.20
2021,04,15,09,42,15.20
2021,04,15,09,43,15.10
2021,04,15,09,44,15.10
2021,04,15,09,45,15.00
2021,04,15,09,46,15.00
2021,04,15,09,47,14.90
2021,04,15,09,48,14.90
2021,04,15,09,49,14.90
2021,04,15,09,50,14.90
2021,04,15,09,51,14.90
2021,04,15,09,52,14.80
2021,04,15,09,53,14.80
2021,04,15,09,54,14.90
2021,04,15,09,55,15.00
2021,04,15,09,56,15.10
2021,04,15,09,57,15.20
2021,04,15,09,58,15.20
2021,04,15,09,59,15.30
2021,04,15,10,00,15.30
2021,04,15,10,01,15.40
2021,04,15,10,02,15.40
2021,04,15,10,03,15.50
2021,04,15,10,04,15.50
2021,04,15,10,05,15.60
2021,04,15,10,06,15.60
2021,04,15,10,07,15.70
2021,04,15,10,08,15.70
2021,04,15,10,09,15.70
2021,04,15,10,10,15.70
2021,04,15,10,11,15.80
2021,04,15,10,12,15.80
2021,04,15,10,13,15.90
2021,04,15,10,14,16.00
2021,04,15,10,15,16.10
2021,04,15,10,16,16.20
2021,04,15,10,17,16.10
2021,04,15,10,18,16.20
2021,04,15,10,19,16.20
2021,04,15,10,20,16.10
2021,04,15,10,21,16.10
2021,04,15,10,22,16.10
2021,04,15,10,23,16.10
2021,04,15,10,24,16.10
2021,04,15,10,25,16.00
2021,04,15,10,26,16.00
2021,04,15,10,27,16.00
2021,04,15,10,28,16.10
2021,04,15,10,29,16.00
2021,04,15,10,30,15.90
2021,04,15,10,31,15.80
2021,04,15,10,32,15.80
2021,04,15,10,33,15.80
2021,04,15,10,34,15.80
2021,04,15,10,35,15.70
2021,04,15,10,36,15.80
2021,04,15,10,37,15.80
2021,04,15,10,38,15.80
2021,04,15,10,39,15.80
2021,04,15,10,40,15.80
2021,04,15,10,41,15.80
2021,04,15,10,42,15.80
2021,04,15,10,43,15.90
2021,04,15,10,44,16.00
2021,04,15,10,45,16.10
2021,04,15,10,46,16.10
2021,04,15,10,47,16.20
2021,04,15,10,48,16.20
2021,04,15,10,49,16.20
2021,04,15,10,50,16.20
2021,04,15,10,51,16.20
2021,04,15,10,52,16.20
2021,04,15,10,53,16.10
2021,04,15,10,54,16.10
2021,04,15,10,55,16.10
2021,04,15,10,56,16.10
2021,04,15,10,57,16.10
2021,04,15,10,58,16.10
2021,04,15,10,59,16.10
2021,04,15,11,00,16.20
2021,04,15,11,01,16.20
2021,04,15,11,02,16.20
2021,04,15,11,03,16.20
2021,04,15,11,04,16.30
2021,04,15,11,05,16.30
2021,04,15,11,06,16.40
2021,04,15,11,07,16.40
2021,04,15,11,08,16.40
2021,04,15,11,09,16.40
2021,04,15,11,10,16.40
2021,04,15,11,11,16.50
2021,04,15,11,12,16.50
2021,04,15,11,13,16.60
2021,04,15,11,14,16.60
2021,04,15,11,15,16.60
2021,04,15,11,16,16.60
2021,04,15,11,17,16.60
2021,04,15,11,18,16.60
2021,04,15,11,19,16.60
2021,04,15,11,20,16.60
2021,04,15,11,21,16.60
2021,04,15,11,22,16.60
2021,04,15,11,23,16.70
2021,04,15,11,24,16.80
2021,04,15,11,25,16.90
2021,04,15,11,26,17.00
2021,04,15,11,27,17.10
2021,04,15,11,28,17.20
2021,04,15,11,29,17.30
2021,04,15,11,30,17.30
2021,04,15,11,31,17.40
2021,04,15,11,32,17.40
2021,04,15,11,33,17.40
2021,04,15,11,34,17.40
2021,04,15,11,35,17.40
2021,04,15,11,36,17.30
2021,04,15,11,37,17.20
2021,04,15,11,38,17.20
2021,04,15,11,39,17.20
2021,04,15,11,40,17.20
2021,04,15,11,41,17.20
2021,04,15,11,42,17.20
2021,04,15,11,43,17.30
2021,04,15,11,44,17.40
2021,04,15,11,45,17.40
2021,04,15,11,46,17.40
2021,04,15,11,47,17.30
2021,04,15,11,48,17.10
2021,04,15,11,49,17.00
2021,04,15,11,50,16.90
2021,04,15,11,51,16.90
2021,04,15,11,52,17.00
2021,04,15,11,53,17.00
2021,04,15,11,54,17.10
2021,04,15,11,55,17.10
2021,04,15,11,56,17.20
2021,04,15,11,57,17.30
2021,04,15,11,58,17.30
2021,04,15,11,59,17.20
2021,04,15,12,00,17.20
2021,04,15,12,01,17.10
2021,04,15,12,02,17.10
2021,04,15,12,03,17.20
2021,04,15,12,04,17.20
2021,04,15,12,05,17.10
2021,04,15,12,06,17.10
2021,04,15,12,07,17.00
2021,04,15,12,08,17.00
2021,04,15,12,09,17.00
2021,04,15,12,10,17.00
2021,04,15,12,11,17.00
2021,04,15,12,12,17.10
2021,04,15,12,13,17.10
2021,04,15,12,14,17.10
2021,04,15,12,15,17.10
2021,04,15,12,16,17.20
2021,04,15,12,17,17.20
2021,04,15,12,18,17.20
2021,04,15,12,19,17.20
2021,04,15,12,20,17.20
2021,04,15,12,21,17.30
2021,04,15,12,22,17.40
2021,04,15,12,23,17.50
2021,04,15,12,24,17.60
2021,04,15,12,25,17.70
2021,04,15,12,26,17.70
2021,04,15,12,27,17.70
2021,04,15,12,28,17.70
2021,04,15,12,29,17.70
2021,04,15,12,30,17.70
2021,04,15,12,31,17.80
2021,04,15,12,32,17.80
2021,04,15,12,33,17.90
2021,04,15,12,34,18.00
2021,04,15,12,35,18.10
2021,04,15,12,36,18.10
2021,04,15,12,37,18.10
2021,04,15,12,38,18.10
2021,04,15,12,39,18.20
2021,04,15,12,40,18.30
2021,04,15,12,41,18.30
2021,04,15,12,42,18.40
2021,04,15,12,43,18.40
2021,04,15,12,44,18.40
2021,04,15,12,45,18.40
2021,04,15,12,46,18.40
2021,04,15,12,47,18.40
2021,04,15,12,48,18.30
2021,04,15,12,49,18.30
2021,04,15,12,50,18.40
2021,04,15,12,51,18.40
2021,04,15,12,52,18.50
2021,04,15,12,53,18.60
2021,04,15,12,54,18.60
2021,04,15,12,55,18.60
2021,04,15,12,56,18.60
2021,04,15,12,57,18.60
2021,04,15,12,58,18.60
2021,04,15,12,59,18.70
2021,04,15,13,00,18.70
2021,04,15,13,01,18.70
2021,04,15,13,02,18.70
2021,04,15,13,03,18.70
2021,04,15,13,04,18.60
2021,04,15,13,05,18.50
2021,04,15,13,06,18.50
2021,04,15,13,07,18.50
2021,04,15,13,08,18.60
2021,04,15,13,09,18.60
2021,04,15,13,10,18.60
2021,04,15,13,11,18.70
2021,04,15,13,12,18.70
2021,04,15,13,13,18.70
2021,04,15,13,14,18.60
2021,04,15,13,15,18.70
2021,04,15,13,16,18.70
2021,04,15,13,17,18.60
2021,04,15,13,18,18.70
2021,04,15,13,19,18.70
2021,04,15,13,20,18.70
2021,04,15,13,21,18.70
2021,04,15,13,22,18.70
2021,04,15,13,23,18.70
2021,04,15,13,24,18.80
2021,04,15,13,25,18.80
2021,04,15,13,26,18.80
2021,04,15,13,27,18.80
2021,04,15,13,28,18.80
2021,04,15,13,29,18.80
2021,04,15,13,30,18.90
2021,04,15,13,31,18.90
2021,04,15,13,32,19.00
2021,04,15,13,33,19.10
2021,04,15,13,34,19.20
2021,04,15,13,35,19.20
2021,04,15,13,36,19.30
2021,04,15,13,37,19.40
2021,04,15,13,38,19.40
2021,04,15,13,39,19.30
2021,04,15,13,40,19.30
2021,04,15,13,41,19.30
2021,04,15,13,42,19.20
2021,04,15,13,43,19.10
2021,04,15,13,44,19.10
2021,04,15,13,45,19.00
2021,04,15,13,46,19.00
2021,04,15,13,47,19.00
2021,04,15,13,48,19.00
2021,04,15,13,49,19.00
2021,04,15,13,50,19.10
2021,04,15,13,51,19.20
2021,04,15,13,52,19.20
2021,04,15,13,53,19.20
2021,04,15,13,54,19.30
2021,04,15,13,55,19.40
2021,04,15,13,56,19.40
2021,04,15,13,57,19.40
2021,04,15,13,58,19.40
2021,04,15,13,59,19.50
2021,04,15,14,00,19.50
2021,04,15,14,01,19.50
2021,04,15,14,02,19.40
2021,04,15,14,03,19.30
2021,04,15,14,04,19.30
2021,04,15,14,05,19.30
2021,04,15,14,06,19.30
2021,04,15,14,07,19.30
2021,04,15,14,08,19.40
2021,04,15,14,09,19.50
2021,04,15,14,10,19.60
2021,04,15,14,11,19.70
2021,04,15,14,12,19.70
2021,04,15,14,13,19.70
2021,04,15,14,14,19.60
2021,04,15,14,15,19.60
2021,04,15,14,16,19.70
2021,04,15,14,17,19.60
2021,04,15,14,18,19.60
2021,04,15,14,19,19.60
2021,04,15,14,20,19.50
2021,04,15,14,21,19.50
2021,04,15,14,22,19.60
2021,04,15,14,23,19.60
2021,04,15,14,24,19.70
2021,04,15,14,25,19.80
2021,04,15,14,26,19.80
2021,04,15,14,27,19.70
2021,04,15,14,28,19.60
2021,04,15,14,29,19.50
2021,04,15,14,30,19.40
2021,04,15,14,31,19.40
2021,04,15,14,32,19.30
2021,04,15,14,33,19.30
2021,04,15,14,34,19.40
2021,04,15,14,35,19.60
2021,04,15,14,36,19.70
2021,04,15,14,37,19.70
2021,04,15,14,38,19.70
2021,04,15,14,39,19.70
2021,04,15,14,40,19.70
2021,04,15,14,41,19.60
2021,04,15,14,42,19.60
2021,04,15,14,43,19.60
2021,04,15,14,44,19.70
2021,04,15,14,45,19.80
2021,04,15,14,46,19.90
2021,04,15,14,47,20.00
2021,04,15,14,48,20.10
2021,04,15,14,49,20.10
2021,04,15,14,50,20.20
2021,04,15,14,51,20.20
2021,04,15,14,52,20.20
2021,04,15,14,53,20.30
2021,04,15,14,54,20.30
2021,04,15,14,55,20.50
2021,04,15,14,56,20.50
2021,04,15,14,57,20.40
2021,04,15,14,58,20.40
2021,04,15,14,59,20.40
2021,04,15,15,00,20.40
2021,04,15,15,01,20.30
2021,04,15,15,02,20.30
2021,04,15,15,03,20.30
2021,04,15,15,04,20.20
2021,04,15,15,05,20.20
2021,04,15,15,06,20.20
2021,04,15,15,07,20.30
2021,04,15,15,08,20.40
2021,04,15,15,09,20.60
2021,04,15,15,10,20.80
2021,04,15,15,11,20.70
2021,04,15,15,12,20.60
2021,04,15,15,13,20.60
2021,04,15,15,14,20.50
2021,04,15,15,15,20.40
2021,04,15,15,16,20.40
2021,04,15,15,17,20.40
2021,04,15,15,18,20.50
2021,04,15,15,19,20.60
2021,04,15,15,20,20.70
2021,04,15,15,21,20.80
2021,04,15,15,22,20.80
2021,04,15,15,23,20.80
2021,04,15,15,24,20.70
2021,04,15,15,25,20.60
2021,04,15,15,26,20.50
2021,04,15,15,27,20.40
2021,04,15,15,28,20.40
2021,04,15,15,29,20.30
2021,04,15,15,30,20.30
2021,04,15,15,31,20.30
2021,04,15,15,32,20.40
2021,04,15,15,33,20.40
2021,04,15,15,34,20.40
2021,04,15,15,35,20.50
2021,04,15,15,36,20.60
2021,04,15,15,37,20.60
2021,04,15,15,38,20.60
2021,04,15,15,39,20.60
2021,04,15,15,40,20.60
2021,04,15,15,41,20.60
2021,04,15,15,42,20.60
2021,04,15,15,43,20.70
2021,04,15,15,44,20.70
2021,04,15,15,45,20.60
2021,04,15,15,46,20.60
2021,04,15,15,47,20.60
2021,04,15,15,48,20.70
2021,04,15,15,49,20.70
2021,04,15,15,50,20.80
2021,04,15,15,51,20.90
2021,04,15,15,52,20.90
2021,04,15,15,53,21.10
2021,04,15,15,54,21.20
2021,04,15,15,55,21.20
2021,04,15,15,56,21.30
2021,04,15,15,57,21.30
2021,04,15,15,58,21.20
2021,04,15,15,59,21.30
2021,04,15,16,00,21.30
2021,04,15,16,01,21.30
2021,04,15,16,02,21.30
2021,04,15,16,03,21.40
2021,04,15,16,04,21.50
2021,04,15,16,05,21.60
2021,04,15,16,06,21.70
2021,04,15,16,07,21.80
2021,04,15,16,08,21.80
2021,04,15,16,09,21.80
2021,04,15,16,10,21.80
2021,04,15,16,11,21.80
2021,04,15,16,12,21.70
2021,04,15,16,13,21.70
2021,04,15,16,14,21.60
2021,04,15,16,15,21.50
2021,04,15,16,16,21.50
2021,04,15,16,17,21.50
2021,04,15,16,18,21.60
2021,04,15,16,19,21.70
2021,04,15,16,20,21.80
2021,04,15,16,21,21.80
2021,04,15,16,22,21.90
2021,04,15,16,23,21.90
2021,04,15,16,24,21.90
2021,04,15,16,25,21.90
2021,04,15,16,26,21.90
2021,04,15,16,27,21.80
2021,04,15,16,28,21.70
2021,04,15,16,29,21.70
2021,04,15,16,30,21.70
2021,04,15,16,31,21.80
2021,04,15,16,32,21.70
2021,04,15,16,33,21.70
2021,04,15,16,34,21.70
2021,04,15,16,35,21.70
2021,04,15,16,36,21.70
2021,04,15,16,37,21.80
2021,04,15,16,38,21.80
2021,04,15,16,39,21.80
2021,04,15,16,40,21.80
2021,04,15,16,41,21.70
2021,04,15,16,42,21.70
2021,04,15,16,43,21.60
2021,04,15,16,44,21.50
2021,04,15,16,45,21.40
2021,04,15,16,46,21.40
2021,04,15,16,47,21.40
2021,04,15,16,48,21.40
2021,04,15,16,49,21.30
2021,04,15,16,50,21.30
2021,04,15,16,51,21.40
2021,04,15,16,52,21.40
2021,04,15,16,53,21.40
2021,04,15,16,54,21.50
2021,04,15,16,55,21.60
2021,04,15,16,56,21.70
2021,04,15,16,57,21.80
2021,04,15,16,58,21.80
2021,04,15,16,59,21.80
2021,04,15,17,00,21.70
2021,04,15,17,01,21.50
2021,04,15,17,02,21.40
2021,04,15,17,03,21.30
2021,04,15,17,04,21.10
2021,04,15,17,05,21.00
2021,04,15,17,06,20.90
2021,04,15,17,07,20.80
2021,04,15,17,08,20.80
2021,04,15,17,09,20.70
2021,04,15,17,10,20.60
2021,04,15,17,11,20.50
2021,04,15,17,12,20.50
2021,04,15,17,13,20.40
2021,04,15,17,14,20.40
2021,04,15,17,15,20.40
2021,04,15,17,16,20.40
2021,04,15,17,17,20.40
2021,04,15,17,18,20.40
2021,04,15,17,19,20.30
2021,04,15,17,20,20.20
2021,04,15,17,21,20.20
2021,04,15,17,22,20.10
2021,04,15,17,23,20.10
2021,04,15,17,24,20.10
2021,04,15,17,25,20.00
2021,04,15,17,26,20.00
2021,04,15,17,27,20.10
2021,04,15,17,28,20.10
2021,04,15,17,29,20.10
2021,04,15,17,30,20.10
2021,04,15,17,31,20.20
2021,04,15,17,32,20.30
2021,04,15,17,33,20.40
2021,04,15,17,34,20.50
2021,04,15,17,35,20.60
2021,04,15,17,36,20.70
2021,04,15,17,37,20.80
2021,04,15,17,38,20.90
2021,04,15,17,39,20.90
2021,04,15,17,40,20.90
2021,04,15,17,41,20.90
2021,04,15,17,42,20.80
2021,04,15,17,43,20.80